Tracking 28790 objects as of 19-Apr-2024
HD Live streaming from Space Station
objects crossing your sky now

SL-16 DEB

Track SL-16 DEB now!
10-day predictions


NORAD ID: 22356
Int'l Code: 1992-093AV
Perigee: 572.4 km
Apogee: 604.7 km
Inclination: 70.7 °
Period: 96.3 minutes
Semi major axis: 6959 km
RCS: 0.0093 m2 (small)
Launch date: December 25, 1992
Source: Commonwealth of Independent States (former USSR) (CIS)
Launch site: TYURATAM MISSILE AND SPACE COMPLEX (TTMTR)

Note: This is SATELLITE DEBRIS
Your satellite tracking list
Your tracking list is empty




NASA's NSSDC Master Catalog

Two Line Element Set (TLE):
1 22356U 92093AV  24109.35579778  .00134900  00000-0  11936-1 0  9996
2 22356  70.6614 308.0921 0023155 276.2091 146.8293 14.95310511626399
Source of the keplerian elements: AFSPC